User: anonymous   Login
Location: Heidgraben
(53.7081°N, 9.6576°E)
Time: 08:18:14
(UTC+00:00)
Language:

Cosmos 304 Rocket - Orbit

View from above orbital plane
View from above orbital plane
View from above satellite
View from above satellite

Ground track
Ground track

The orbit data is extracted from the following two-line orbital elements,

1  4139U 69091B   20265.68094677 +.00000081 +00000-0 +21779-4 0  9993
2  4139 074.0340 338.2705 0004533 129.5551 230.6017 14.62989629703553
Epoch (UTC): 21 September 2020 16:20:33
Eccentricity: 0.0004533
inclination: 74.0340°
perigee height: 680 km
apogee height: 687 km
right ascension of ascending node: 338.2705°
argument of perigee: 129.5551°
revolutions per day: 14.62989629
mean anomaly at epoch: 230.6017°
orbit number at epoch: 70355

The dashed part of the orbit path shows where the satellite is in the earth's shadow,  

DLR